Location: *
(46.1006°N, 1.8394°E)
Time: 12:53:21
(UTC+00:00)

COSMOS 2455 - Pass Details

Date: 20 September 2019
Orbit: 900 x 909 km, 67.1° (Epoch: 18 October)

Event Time Altitude Azimuth Distance (km) Brightness Sun altitude
Rises 18:21:01 0° 324° (NW) 3,548 6.6 -5.3°
Reaches altitude 10° 18:23:33 10° 321° (NW) 2,602 6.0 -5.8°
Maximum altitude 18:29:27 58° 244° (WSW) 1,050 3.6 -6.8°
Drops below altitude 10° 18:35:19 10° 166° (SSE) 2,581 5.0 -7.8°
Sets 18:37:51 0° 163° (SSE) 3,517 5.6 -8.2°
